| time (UTC) | temp F | wind direction | speed knots | gust knots | rain 1hr in | rain 24hr in | rain mn in | humidity % | barometer mb |
| 20260503180003 | 72 | 227 | 0.0 | 2.6 | 0.00 | 0.00 | 0.00 | 50 | 1014.8 |
| 20260503174504 | 71 | 239 | 0.0 | 2.6 | 0.00 | 0.00 | 0.00 | 49 | 1015.0 |
| 20260503173007 | 70 | 232 | 0.9 | 4.3 | 0.00 | 0.00 | 0.00 | 50 | 1015.1 |
| 20260503171521 | 70 | 241 | 1.7 | 5.2 | 0.00 | 0.00 | 0.00 | 53 | 1015.1 |
| 20260503170120 | 69 | 243 | 0.9 | 4.3 | 0.00 | 0.00 | 0.00 | 52 | 1015.1 |
| 20260503160113 | 69 | 193 | 0.0 | 3.5 | 0.00 | 0.00 | 0.00 | 55 | 1015.4 |
| 20260503150110 | 64 | 200 | 0.9 | 1.7 | 0.00 | 0.00 | 0.00 | 66 | 1015.8 |
| 20260503140104 | 54 | 188 | 1.7 | 3.5 | 0.00 | 0.00 | 0.00 | 77 | 1015.5 |
| 20260503120133 | 48 | 191 | 0.0 | 1.7 | 0.00 | 0.00 | 0.00 | 84 | 1015.3 |
| 20260503110118 | 52 | 280 | 0.0 | 0.0 | 0.00 | 0.00 | 0.00 | 75 | 1015.3 |
| 20260503100110 | 59 | 65 | 0.0 | 3.5 | 0.00 | 0.00 | 0.00 | 60 | 1014.9 |
| 20260503090109 | 54 | 195 | 0.0 | 0.9 | 0.00 | 0.00 | 0.00 | 71 | 1014.9 |
| 20260503081605 | 54 | 185 | 1.7 | 3.5 | 0.00 | 0.00 | 0.00 | 73 | 1014.9 |
| 20260503080107 | 53 | 182 | 0.9 | 2.6 | 0.00 | 0.00 | 0.00 | 75 | 1014.8 |
| 20260503071604 | 51 | 203 | 0.0 | 1.7 | 0.00 | 0.00 | 0.00 | 84 | 1014.8 |
| 20260503060114 | 52 | 198 | 0.0 | 1.7 | 0.00 | 0.00 | 0.00 | 84 | 1014.7 |
| 20260503054600 | 53 | 197 | 0.0 | 0.9 | 0.00 | 0.00 | 0.00 | 82 | 1014.8 |
| 20260503053103 | 55 | 198 | 0.0 | 0.9 | 0.00 | 0.00 | 0.00 | 78 | 1014.8 |
| 20260503051502 | 57 | 197 | 0.0 | 0.9 | 0.00 | 0.00 | 0.00 | 73 | 1014.8 |
| 20260503050110 | 59 | 200 | 0.0 | 1.7 | 0.00 | 0.00 | 0.00 | 66 | 1014.8 |
| 20260503044612 | 59 | 211 | 1.7 | 2.6 | 0.00 | 0.00 | 0.00 | 67 | 1014.7 |
| 20260503043100 | 60 | 182 | 0.0 | 1.7 | 0.00 | 0.00 | 0.00 | 65 | 1014.5 |
| 20260503041614 | 59 | 188 | 0.9 | 1.7 | 0.00 | 0.00 | 0.00 | 65 | 1014.4 |
| 20260503040104 | 60 | 325 | 0.0 | 0.0 | 0.00 | 0.00 | 0.00 | 71 | 1014.3 |
| 20260503034550 | 62 | 325 | 0.0 | 0.0 | 0.00 | 0.00 | 0.00 | 69 | 1014.1 |
| 20260503033104 | 63 | 325 | 0.0 | 0.0 | 0.00 | 0.00 | 0.00 | 64 | 1013.9 |
| 20260503031605 | 66 | 325 | 0.0 | 0.0 | 0.00 | 0.00 | 0.00 | 60 | 1013.8 |
| 20260503030109 | 69 | 325 | 0.0 | 0.0 | 0.00 | 0.00 | 0.00 | 54 | 1013.8 |
| 20260503024603 | 72 | 325 | 0.0 | 0.0 | 0.00 | 0.00 | 0.00 | 47 | 1013.8 |
| 20260503023106 | 73 | 325 | 0.0 | 0.0 | 0.00 | 0.00 | 0.00 | 47 | 1013.8 |
| 20260503021502 | 73 | 325 | 0.0 | 0.9 | 0.00 | 0.00 | 0.00 | 46 | 1013.9 |
| 20260503020111 | 74 | 325 | 0.0 | 1.7 | 0.00 | 0.00 | 0.00 | 46 | 1014.0 |
| 20260503014554 | 75 | 271 | 0.0 | 0.9 | 0.00 | 0.00 | 0.00 | 42 | 1014.1 |
| 20260503013059 | 77 | 257 | 0.0 | 0.9 | 0.00 | 0.00 | 0.00 | 37 | 1014.2 |
| 20260503011610 | 78 | 198 | 0.0 | 0.9 | 0.00 | 0.00 | 0.00 | 33 | 1014.3 |
| 20260503010112 | 77 | 249 | 0.0 | 0.9 | 0.00 | 0.00 | 0.00 | 37 | 1014.4 |
| 20260503004603 | 76 | 331 | 0.0 | 3.5 | 0.00 | 0.00 | 0.00 | 35 | 1014.4 |
| 20260503003105 | 76 | 304 | 0.0 | 0.9 | 0.00 | 0.00 | 0.00 | 38 | 1014.4 |
| 20260503001501 | 75 | 297 | 0.0 | 4.3 | 0.00 | 0.00 | 0.00 | 41 | 1014.6 |
| 20260503000108 | 75 | 242 | 0.9 | 4.3 | 0.00 | 0.00 | 0.00 | 38 | 1014.6 |
| 20260502234555 | 75 | 324 | 0.0 | 3.5 | 0.00 | 0.00 | 0.00 | 43 | 1014.8 |
| 20260502233053 | 75 | 316 | 0.9 | 3.5 | 0.00 | 0.00 | 0.00 | 38 | 1015.0 |
| 20260502231558 | 75 | 237 | 0.0 | 3.5 | 0.00 | 0.00 | 0.00 | 39 | 1015.1 |
| 20260502230059 | 74 | 227 | 0.9 | 5.2 | 0.00 | 0.00 | 0.00 | 41 | 1015.4 |
| 20260502224544 | 73 | 143 | 2.6 | 5.2 | 0.00 | 0.00 | 0.00 | 43 | 1015.7 |
| 20260502223047 | 73 | 236 | 0.0 | 3.5 | 0.00 | 0.00 | 0.00 | 43 | 1016.0 |
| 20260502221549 | 73 | 236 | 0.0 | 3.5 | 0.00 | 0.00 | 0.00 | 49 | 1016.3 |
| 20260502220146 | 72 | 236 | 0.9 | 5.2 | 0.00 | 0.00 | 0.00 | 46 | 1016.5 |
| 20260502214547 | 72 | 236 | 1.7 | 5.2 | 0.00 | 0.00 | 0.00 | 46 | 1016.6 |
| 20260502213053 | 72 | 314 | 0.9 | 5.2 | 0.00 | 0.00 | 0.00 | 51 | 1016.8 |
| 20260502211555 | 71 | 330 | 2.6 | 7.0 | 0.00 | 0.00 | 0.00 | 52 | 1016.9 |
| 20260502210104 | 71 | 350 | 1.7 | 4.3 | 0.00 | 0.00 | 0.00 | 53 | 1017.0 |
| 20260502204548 | 69 | 210 | 2.6 | 7.0 | 0.00 | 0.00 | 0.00 | 57 | 1017.1 |
| 20260502203100 | 69 | 238 | 0.9 | 7.0 | 0.00 | 0.00 | 0.00 | 55 | 1017.2 |
| 20260502201550 | 70 | 209 | 3.5 | 7.8 | 0.00 | 0.00 | 0.00 | 53 | 1017.5 |
| 20260502200053 | 69 | 317 | 0.9 | 5.2 | 0.00 | 0.00 | 0.00 | 57 | 1017.6 |
| 20260502194541 | 68 | 240 | 1.7 | 5.2 | 0.00 | 0.00 | 0.00 | 60 | 1017.8 |
| 20260502193038 | 68 | 245 | 1.7 | 6.1 | 0.00 | 0.00 | 0.00 | 58 | 1017.9 |
| 20260502191543 | 67 | 229 | 2.6 | 5.2 | 0.00 | 0.00 | 0.00 | 61 | 1018.0 |
| 20260502190049 | 66 | 253 | 0.9 | 4.3 | 0.00 | 0.00 | 0.00 | 61 | 1018.1 |
| 20260502184536 | 67 | 236 | 1.7 | 4.3 | 0.00 | 0.00 | 0.00 | 60 | 1018.1 |
| 20260502183050 | 66 | 214 | 2.6 | 6.1 | 0.00 | 0.00 | 0.00 | 59 | 1018.2 |
| 20260502181556 | 65 | 224 | 1.7 | 4.3 | 0.00 | 0.00 | 0.00 | 64 | 1018.3 |